| time (UTC) | temp F | wind direction | speed MPH | gust MPH | rain 1hr in | rain 24hr in | rain mn in | humidity % | barometer mb |
| 20260508044557 | 44 | 327 | 0.0 | 1.0 | 0.00 | 0.00 | 0.00 | 78 | 1013.6 |
| 20260508043100 | 43 | 327 | 1.0 | 2.0 | 0.00 | 0.00 | 0.00 | 78 | 1013.6 |
| 20260508041612 | 43 | 327 | 0.0 | 0.0 | 0.00 | 0.00 | 0.00 | 80 | 1013.3 |
| 20260508040105 | 42 | 327 | 0.0 | 0.0 | 0.00 | 0.00 | 0.00 | 77 | 1013.4 |
| 20260508034547 | 43 | 327 | 0.0 | 0.0 | 0.00 | 0.00 | 0.00 | 77 | 1013.3 |
| 20260508033047 | 43 | 327 | 0.0 | 1.0 | 0.00 | 0.00 | 0.00 | 77 | 1013.3 |
| 20260508031546 | 43 | 327 | 0.0 | 1.0 | 0.00 | 0.00 | 0.00 | 77 | 1013.2 |
| 20260508030045 | 43 | 327 | 0.0 | 0.0 | 0.00 | 0.00 | 0.00 | 74 | 1013.4 |
| 20260508024550 | 43 | 327 | 0.0 | 0.0 | 0.00 | 0.00 | 0.00 | 74 | 1013.4 |
| 20260508023044 | 44 | 327 | 0.0 | 0.0 | 0.00 | 0.00 | 0.00 | 73 | 1013.3 |
| 20260508021544 | 45 | 327 | 0.0 | 2.0 | 0.00 | 0.00 | 0.00 | 71 | 1013.3 |
| 20260508020048 | 45 | 327 | 0.0 | 0.0 | 0.00 | 0.00 | 0.00 | 70 | 1013.2 |
| 20260508014543 | 46 | 327 | 0.0 | 0.0 | 0.00 | 0.00 | 0.00 | 68 | 1013.1 |
| 20260508013043 | 47 | 327 | 0.0 | 0.0 | 0.00 | 0.00 | 0.00 | 68 | 1013.0 |
| 20260508011551 | 48 | 327 | 0.0 | 0.0 | 0.00 | 0.00 | 0.00 | 67 | 1012.9 |
| 20260508010041 | 49 | 327 | 0.0 | 2.0 | 0.00 | 0.00 | 0.00 | 63 | 1012.8 |
| 20260508004544 | 50 | 328 | 1.0 | 5.0 | 0.00 | 0.00 | 0.00 | 60 | 1012.7 |
| 20260508003041 | 51 | 315 | 3.0 | 5.0 | 0.00 | 0.00 | 0.00 | 59 | 1012.5 |
| 20260508001542 | 52 | 319 | 2.0 | 4.0 | 0.00 | 0.00 | 0.00 | 58 | 1012.3 |
| 20260508000039 | 53 | 306 | 1.0 | 5.0 | 0.00 | 0.00 | 0.00 | 55 | 1012.1 |
| 20260507234539 | 53 | 306 | 3.0 | 5.0 | 0.00 | 0.00 | 0.00 | 53 | 1011.9 |
| 20260507233054 | 53 | 286 | 1.0 | 6.0 | 0.00 | 0.00 | 0.00 | 53 | 1011.9 |
| 20260507231539 | 54 | 277 | 4.0 | 8.0 | 0.00 | 0.00 | 0.00 | 52 | 1011.8 |
| 20260507230037 | 55 | 274 | 5.0 | 9.0 | 0.00 | 0.00 | 0.00 | 49 | 1011.9 |
| 20260507224541 | 55 | 331 | 4.0 | 11.0 | 0.00 | 0.00 | 0.00 | 51 | 1011.8 |
| 20260507223037 | 55 | 158 | 3.0 | 8.0 | 0.00 | 0.00 | 0.00 | 52 | 1011.8 |
| 20260507221537 | 56 | 300 | 6.0 | 10.0 | 0.00 | 0.00 | 0.00 | 51 | 1011.7 |
| 20260507220035 | 56 | 272 | 5.0 | 10.0 | 0.00 | 0.00 | 0.00 | 50 | 1011.4 |
| 20260507214536 | 57 | 299 | 4.0 | 9.0 | 0.00 | 0.00 | 0.00 | 48 | 1011.2 |
| 20260507213039 | 57 | 281 | 2.0 | 10.0 | 0.00 | 0.00 | 0.00 | 49 | 1011.0 |
| 20260507211534 | 57 | 346 | 5.0 | 11.0 | 0.00 | 0.00 | 0.00 | 48 | 1010.7 |
| 20260507210040 | 57 | 273 | 4.0 | 8.0 | 0.00 | 0.00 | 0.00 | 49 | 1010.9 |
| 20260507204533 | 58 | 286 | 4.0 | 7.0 | 0.00 | 0.00 | 0.00 | 49 | 1010.6 |
| 20260507203034 | 57 | 317 | 5.0 | 13.0 | 0.00 | 0.00 | 0.00 | 47 | 1010.7 |
| 20260507201529 | 58 | 283 | 4.0 | 10.0 | 0.00 | 0.00 | 0.00 | 47 | 1010.8 |
| 20260507200028 | 59 | 279 | 3.0 | 7.0 | 0.00 | 0.00 | 0.00 | 48 | 1011.0 |
| 20260507194550 | 59 | 321 | 4.0 | 11.0 | 0.00 | 0.00 | 0.00 | 48 | 1011.1 |
| 20260507193029 | 59 | 306 | 4.0 | 7.0 | 0.00 | 0.00 | 0.00 | 47 | 1011.2 |
| 20260507191532 | 59 | 283 | 6.0 | 11.0 | 0.00 | 0.00 | 0.00 | 46 | 1011.3 |
| 20260507190028 | 59 | 218 | 6.0 | 11.0 | 0.00 | 0.00 | 0.00 | 47 | 1011.3 |
| 20260507184533 | 59 | 252 | 5.0 | 15.0 | 0.00 | 0.00 | 0.00 | 47 | 1011.1 |
| 20260507183035 | 58 | 302 | 4.0 | 9.0 | 0.00 | 0.00 | 0.00 | 49 | 1011.2 |
| 20260507181521 | 58 | 221 | 5.0 | 10.0 | 0.00 | 0.00 | 0.00 | 48 | 1011.3 |
| 20260507180029 | 59 | 281 | 5.0 | 9.0 | 0.00 | 0.00 | 0.00 | 50 | 1011.5 |
| 20260507174517 | 58 | 261 | 5.0 | 12.0 | 0.00 | 0.00 | 0.00 | 51 | 1011.6 |
| 20260507173020 | 56 | 232 | 4.0 | 8.0 | 0.00 | 0.00 | 0.00 | 53 | 1011.8 |
| 20260507171520 | 56 | 264 | 4.0 | 7.0 | 0.00 | 0.00 | 0.00 | 52 | 1011.9 |
| 20260507170009 | 57 | 270 | 3.0 | 8.0 | 0.00 | 0.00 | 0.00 | 50 | 1012.0 |
| 20260507164508 | 56 | 220 | 6.0 | 15.0 | 0.00 | 0.00 | 0.00 | 54 | 1012.0 |
| 20260507163011 | 56 | 242 | 6.0 | 9.0 | 0.00 | 0.00 | 0.00 | 52 | 1012.0 |
| 20260507161506 | 55 | 219 | 5.0 | 9.0 | 0.00 | 0.00 | 0.00 | 56 | 1012.0 |
| 20260507160005 | 57 | 228 | 8.0 | 13.0 | 0.00 | 0.00 | 0.00 | 56 | 1012.1 |
| 20260507154504 | 55 | 236 | 3.0 | 8.0 | 0.00 | 0.00 | 0.00 | 56 | 1012.2 |
| 20260507153001 | 56 | 265 | 3.0 | 7.0 | 0.00 | 0.00 | 0.00 | 59 | 1012.3 |
| 20260507151601 | 55 | 223 | 4.0 | 11.0 | 0.00 | 0.00 | 0.00 | 59 | 1012.5 |
| 20260507150101 | 55 | 250 | 3.0 | 7.0 | 0.00 | 0.00 | 0.00 | 59 | 1012.6 |
| 20260507144557 | 54 | 253 | 4.0 | 10.0 | 0.00 | 0.00 | 0.00 | 65 | 1012.7 |
| 20260507143049 | 53 | 266 | 3.0 | 7.0 | 0.00 | 0.00 | 0.00 | 64 | 1012.8 |
| 20260507141607 | 52 | 231 | 5.0 | 10.0 | 0.00 | 0.00 | 0.00 | 66 | 1013.0 |
| 20260507140048 | 52 | 205 | 5.0 | 9.0 | 0.00 | 0.00 | 0.00 | 69 | 1013.1 |
| 20260507134545 | 52 | 198 | 5.0 | 9.0 | 0.00 | 0.00 | 0.00 | 71 | 1013.2 |
| 20260507133042 | 51 | 204 | 4.0 | 10.0 | 0.00 | 0.00 | 0.00 | 74 | 1013.3 |
| 20260507131539 | 50 | 195 | 4.0 | 8.0 | 0.00 | 0.00 | 0.00 | 76 | 1013.4 |
| 20260507130038 | 49 | 238 | 5.0 | 9.0 | 0.00 | 0.00 | 0.00 | 77 | 1013.4 |
| 20260507124533 | 49 | 200 | 5.0 | 9.0 | 0.00 | 0.01 | 0.00 | 79 | 1013.4 |
| 20260507123038 | 47 | 202 | 4.0 | 9.0 | 0.00 | 0.01 | 0.00 | 81 | 1013.4 |
| 20260507121528 | 46 | 215 | 3.0 | 7.0 | 0.00 | 0.01 | 0.00 | 83 | 1013.4 |
| 20260507120039 | 44 | 237 | 2.0 | 4.0 | 0.00 | 0.01 | 0.00 | 88 | 1013.3 |
| 20260507114527 | 42 | 243 | 2.0 | 4.0 | 0.00 | 0.01 | 0.00 | 91 | 1013.4 |
| 20260507113038 | 41 | 333 | 0.0 | 0.0 | 0.00 | 0.01 | 0.00 | 94 | 1013.4 |
| 20260507111526 | 39 | 333 | 0.0 | 0.0 | 0.00 | 0.01 | 0.00 | 95 | 1013.2 |
| 20260507110030 | 38 | 333 | 0.0 | 0.0 | 0.00 | 0.01 | 0.00 | 95 | 1013.1 |
| 20260507104525 | 37 | 333 | 0.0 | 0.0 | 0.00 | 0.04 | 0.00 | 94 | 1013.1 |
| 20260507103023 | 37 | 333 | 0.0 | 0.0 | 0.00 | 0.04 | 0.00 | 94 | 1013.1 |
| 20260507101522 | 37 | 333 | 0.0 | 0.0 | 0.00 | 0.04 | 0.00 | 93 | 1012.9 |
| 20260507100030 | 38 | 333 | 0.0 | 0.0 | 0.00 | 0.04 | 0.00 | 94 | 1012.8 |
| 20260507094519 | 38 | 333 | 0.0 | 0.0 | 0.00 | 0.08 | 0.00 | 94 | 1012.7 |
| 20260507093018 | 38 | 333 | 0.0 | 0.0 | 0.00 | 0.08 | 0.00 | 94 | 1012.8 |
| 20260507091521 | 38 | 333 | 0.0 | 0.0 | 0.00 | 0.08 | 0.00 | 94 | 1012.8 |
| 20260507090016 | 38 | 333 | 0.0 | 0.0 | 0.00 | 0.08 | 0.00 | 93 | 1012.9 |
| 20260507084514 | 38 | 333 | 0.0 | 0.0 | 0.00 | 0.14 | 0.00 | 93 | 1012.8 |
| 20260507083014 | 39 | 333 | 0.0 | 0.0 | 0.00 | 0.14 | 0.00 | 92 | 1012.9 |
| 20260507081513 | 39 | 333 | 0.0 | 0.0 | 0.00 | 0.14 | 0.00 | 93 | 1012.9 |
| 20260507080012 | 39 | 333 | 0.0 | 0.0 | 0.00 | 0.14 | 0.00 | 92 | 1013.0 |
| 20260507074513 | 39 | 333 | 0.0 | 0.0 | 0.00 | 0.18 | 0.00 | 92 | 1013.0 |
| 20260507073009 | 39 | 333 | 0.0 | 0.0 | 0.00 | 0.18 | 0.00 | 91 | 1013.0 |
| 20260507071506 | 39 | 333 | 0.0 | 0.0 | 0.00 | 0.18 | 0.00 | 90 | 1013.0 |
| 20260507070009 | 40 | 333 | 0.0 | 0.0 | 0.00 | 0.18 | 0.00 | 89 | 1012.9 |
| 20260507064502 | 41 | 333 | 0.0 | 0.0 | 0.00 | 0.22 | 0.00 | 89 | 1013.1 |
| 20260507063117 | 41 | 333 | 0.0 | 0.0 | 0.00 | 0.22 | 0.00 | 90 | 1013.2 |
| 20260507061558 | 41 | 333 | 0.0 | 0.0 | 0.00 | 0.22 | 0.00 | 88 | 1013.3 |
| 20260507060054 | 42 | 333 | 0.0 | 0.0 | 0.00 | 0.22 | 0.00 | 87 | 1013.4 |
| 20260507054552 | 43 | 333 | 0.0 | 0.0 | 0.00 | 0.32 | 0.00 | 86 | 1013.7 |
| 20260507053047 | 44 | 333 | 0.0 | 0.0 | 0.00 | 0.32 | 0.00 | 84 | 1013.7 |
| 20260507051544 | 44 | 333 | 0.0 | 0.0 | 0.00 | 0.32 | 0.00 | 82 | 1013.8 |
| 20260507050042 | 45 | 333 | 0.0 | 0.0 | 0.00 | 0.32 | 0.00 | 80 | 1013.7 |